Weather History for GMMX - February, 2013

Change the Weather History Date:

Thursday, February 7, 2013

  Actual Average Record
Temperature  
Mean Temperature 54 °F -  
Max Temperature 67 °F 68 °F 78 °F (2008)
Min Temperature 41 °F 46 °F 35 °F (2015)
Degree Days  
Heating Degree Days 11    
Growing Degree Days 4 (Base 50)    
Moisture  
Dew Point 40 °F    
Average Humidity 67    
Maximum Humidity 100    
Minimum Humidity 27    
Precipitation  
Precipitation 0.00 in 0.05 in - ()
Sea Level Pressure  
Sea Level Pressure 30.19 in    
Wind  
Wind Speed 7 mph ()    
Max Wind Speed 12 mph    
Max Gust Speed -    
Visibility 4.1 miles    
Events      
Averages and records for this station are not official NWS values.
T = Trace of Precipitation, MM = Missing Value Source: Averaged Metar Reports

Daily Weather History Graph

Daily Weather History Graph

Search for Another Location

Airport or City:

Trip Planner

Search our weather history database for the weather conditions in past years. The results will help you decide how hot, cold, wet, or windy it might be!

Date:

Astronomy

Feb. 07, 2013 Rise Set
Actual Time 7:20 AM WET 6:12 PM WET
Civil Twilight 6:55 AM WET 6:37 PM WET
Nautical Twilight 6:26 AM WET 7:06 PM WET
Astronomical Twilight 5:58 AM WET 7:34 PM WET
Moon 4:42 AM WET (2/7) 3:26 PM WET (2/7)
Length of Visible Light 11h 41m
Length of Day
10h 51m
Waning Crescent, 10% of the Moon is Illuminated
Feb 7
Waning Crescent
Feb 10
New
Feb 17
First Quarter
Feb 25
Full
Mar 4
Last Quarter

Hourly Weather History & Observations

Time (WET) Temp. Windchill Dew Point Humidity Pressure Visibility Wind Dir Wind Speed Gust Speed Precip Events Conditions
12:00 AM 50 °F - 46 °F 79% 30.28 in 6 mi East 9.2 mph - -   Clear
12:00 AM 50.0 °F - 44.6 °F 82% 30.27 in - East 9.2 mph - N/A   Clear
12:30 AM 48.2 °F - 44.6 °F 87% 30.24 in - East 8.1 mph - N/A   Clear
1:00 AM 48.2 °F - 44.6 °F 87% 30.24 in - East 6.9 mph - N/A   Clear
1:30 AM 46.4 °F 44.3 °F 44.6 °F 93% 30.24 in - ENE 4.6 mph - N/A   Clear
2:00 AM 46.4 °F 45.2 °F 44.6 °F 93% 30.24 in - NE 3.5 mph - N/A   Clear
2:30 AM 46.4 °F 43.5 °F 42.8 °F 87% 30.24 in - NNE 5.8 mph - N/A   Clear
3:00 AM 45 °F - 43 °F 89% 30.28 in 6 mi NE 3.5 mph - -   Clear
3:00 AM 44.6 °F 43.1 °F 42.8 °F 93% 30.24 in - NNE 3.5 mph - N/A   Clear
3:30 AM 44.6 °F 41.4 °F 42.8 °F 93% 30.24 in - NE 5.8 mph - N/A   Clear
4:00 AM 44.6 °F 41.4 °F 42.8 °F 93% 30.24 in - ENE 5.8 mph - N/A   Clear
4:30 AM 44.6 °F 41.4 °F 42.8 °F 93% 30.21 in - ENE 5.8 mph - N/A   Clear
5:00 AM 44.6 °F 39.7 °F 42.8 °F 93% 30.21 in - East 9.2 mph - N/A   Clear
5:30 AM 42.8 °F 38.6 °F 41.0 °F 93% 30.21 in - East 6.9 mph - N/A   Clear
6:00 AM 42.8 °F 37.5 °F 41.0 °F 93% 30.21 in 5.6 mi East 9.2 mph - N/A   Unknown
6:30 AM 42.8 °F 37.5 °F 42.8 °F 100% 30.21 in 5.6 mi East 9.2 mph - N/A   Unknown
7:00 AM 42.8 °F 37.5 °F 41.0 °F 93% 30.21 in - East 9.2 mph - N/A   Clear
7:30 AM 41.0 °F 35.8 °F 41.0 °F 100% 30.21 in 5.0 mi East 8.1 mph - N/A   Unknown
7:56 AM 42.8 °F 38.0 °F 41.0 °F 93% 30.21 in 1.2 mi East 8.1 mph - N/A   Mist
8:00 AM 42.8 °F 38.0 °F 41.0 °F 93% 30.21 in 3.7 mi East 8.1 mph - N/A   Unknown
8:30 AM 42.8 °F 38.6 °F 41.0 °F 93% 30.24 in 0.7 mi East 6.9 mph - N/A   Mist
8:46 AM 47 °F - 44 °F 87% 30.28 in 1 mi East 6.9 mph - -   Mist
9:00 AM 46.4 °F 43.5 °F 44.6 °F 93% 30.24 in 1.2 mi East 5.8 mph - N/A   Scattered Clouds
9:22 AM 48.2 °F - 44.6 °F 87% 30.24 in 3.1 mi ESE 6.9 mph - N/A   Scattered Clouds
9:30 AM 42.8 °F 38.6 °F 41.0 °F 93% 30.24 in 0.7 mi East 6.9 mph - N/A   Mist
10:00 AM 50.0 °F - 44.6 °F 82% 30.24 in 4.3 mi East 8.1 mph - N/A   Unknown
10:30 AM 53.6 °F - 42.8 °F 67% 30.24 in 5.0 mi ENE 8.1 mph - N/A   Unknown
11:00 AM 57.2 °F - 42.8 °F 59% 30.24 in 5.0 mi ENE 8.1 mph - N/A   Unknown
11:30 AM 57.2 °F - 42.8 °F 59% 30.24 in 5.0 mi NE 9.2 mph - N/A   Unknown
12:00 PM 60 °F - 42 °F 41% 30.22 in 5 mi NE 8.1 mph - -   Clear
12:00 PM 60.8 °F - 42.8 °F 52% 30.21 in 5.0 mi NE 8.1 mph - N/A   Unknown
12:30 PM 60.8 °F - 42.8 °F 52% 30.21 in 5.0 mi NNE 5.8 mph - N/A   Unknown
1:00 PM 64.4 °F - 41.0 °F 42% 30.21 in 5.0 mi ENE 6.9 mph - N/A   Unknown
1:30 PM 66.2 °F - 41.0 °F 40% 30.18 in - NNE 6.9 mph - N/A   Clear
2:00 PM 66.2 °F - 39.2 °F 37% 30.15 in - NE 11.5 mph - N/A   Clear
2:30 PM 66.2 °F - 39.2 °F 37% 30.15 in - NE 9.2 mph - N/A   Clear
3:00 PM 66.2 °F - 39.2 °F 37% 30.15 in - NE 9.2 mph - N/A   Clear
3:30 PM 68.0 °F - 37.4 °F 33% 30.15 in - NE 6.9 mph - N/A   Clear
4:00 PM 66.2 °F - 33.8 °F 30% 30.12 in - NE 8.1 mph - N/A   Clear
4:30 PM 64.4 °F - 35.6 °F 34% 30.12 in - NE 6.9 mph - N/A   Clear
5:00 PM 64.4 °F - 33.8 °F 32% 30.12 in - East 8.1 mph - N/A   Clear
5:30 PM 62.6 °F - 33.8 °F 34% 30.12 in - East 6.9 mph - N/A   Clear
6:00 PM 61 °F - 36 °F 27% 30.11 in 6 mi East 6.9 mph - -   Clear
6:00 PM 60.8 °F - 35.6 °F 39% 30.12 in - East 8.1 mph - N/A   Clear
6:30 PM 59.0 °F - 35.6 °F 42% 30.12 in - East 6.9 mph - N/A   Clear
7:00 PM 57.2 °F - 37.4 °F 48% 30.12 in - NE 4.6 mph - N/A   Clear
7:30 PM 57.2 °F - 35.6 °F 44% 30.12 in - Calm Calm - N/A   Clear
8:00 PM 55.4 °F - 35.6 °F 47% 30.12 in - Calm Calm - N/A   Clear
8:30 PM 55.4 °F - 35.6 °F 47% 30.12 in - NE 8.1 mph - N/A   Clear
9:00 PM 55 °F - 37 °F 40% 30.13 in 6 mi NE 6.9 mph - -   Clear
9:00 PM 55.4 °F - 37.4 °F 51% 30.12 in - NE 6.9 mph - N/A   Clear
9:30 PM 53.6 °F - 37.4 °F 54% 30.12 in - ENE 8.1 mph - N/A   Clear
10:00 PM 51.8 °F - 37.4 °F 58% 30.12 in - ENE 6.9 mph - N/A   Clear
10:30 PM 48.2 °F - 37.4 °F 66% 30.12 in - ENE 6.9 mph - N/A   Clear
11:00 PM 50.0 °F - 37.4 °F 62% 30.12 in - East 5.8 mph - N/A   Clear
11:30 PM 48.2 °F - 37.4 °F 66% 30.12 in - East 8.1 mph - N/A   Clear